Regional Weather Roundup
Issued by NWS

Home | Current Version | Previous Version | Text Only | Print | Product List | Glossary Off
Versions: 1 2 3 4 5 6 7 8 9 10 11 12 13 14 15 16 17 18 19 20 21 22 23 24 25 26 27 28 29 30 31 32 33 34 35 36 37 38 39 40 41 42 43 44 45 46 47 48 49 50

000
ASUS43 KDMX 250203
RWRIA

WEATHER ROUNDUP FOR IOWA
NATIONAL WEATHER SERVICE DES MOINES IA
900 PM CDT WED AUG 24 2016

NOTE: "FAIR" INDICATES FEW OR NO CLOUDS BELOW 12,000 FEET WITH NO
SIGNIFICANT WEATHER AND/OR OBSTRUCTIONS TO VISIBILITY.

* - THESE STATIONS ARE NOT NWS STATIONS...THUS NOT UNDER NWS
QUALITY CONTROL.  THEY ALSO DO NOT REPORT WEATHER SUCH
AS PRECIPITATION OR FOG.

IAZ001>003-012>014-020>022-031>034-043>046-250300-
   NORTHWEST IOWA

CITY           SKY/WX    TMP DP  RH WIND       PRES   REMARKS
CARROLL *      CLOUDY    70  64  83 NW8       30.04R
CHEROKEE *     CLOUDY    68  65  92 CALM      30.05R
DENISON *      CLOUDY    68  64  88 N7        30.02S
LE MARS *      CLOUDY    66  63  88 CALM      30.07R
ORANGE CITY *  CLOUDY    64  63  94 CALM      30.06S
SHELDON *      CLOUDY    64  61  88 W5        30.04S
SIOUX CITY     CLOUDY    66  60  81 NW5       30.06R
SPENCER        CLOUDY    66  62  87 W5        30.04F
STORM LAKE *   CLOUDY    66  64  94 NW7       30.05S
$$

IAZ055>058-069>071-079>083-090>094-250300-
   SOUTHWEST IOWA

CITY           SKY/WX    TMP DP  RH WIND       PRES   REMARKS
ATLANTIC *     CLOUDY    70  64  83 CALM      30.04R
AUDUBON *      LGT RAIN  70  64  83 N9        30.05R
CLARINDA *       N/A     70  68  94 MISG      30.06S
COUNCIL BLFS * CLOUDY    68  64  88 N5        30.04R
CRESTON *      CLOUDY    70  68  94 CALM      30.06S
HARLAN  *      CLOUDY    68  66  94 N5        30.07R
LAMONI         CLOUDY    71  66  84 NW13      30.04R
RED OAK *      CLOUDY    68  66  94 N6        30.03S
SHENANDOAH *   CLOUDY    70 -38   1 SW6       30.04S
$$

IAZ047>049-059>061-072>074-084-250300-
   CENTRAL IOWA

CITY           SKY/WX    TMP DP  RH WIND       PRES   REMARKS
AMES           PTCLDY    73  69  87 N8        30.00S
ANKENY *         N/A    N/A N/A N/A MISG        N/A
BOONE *        CLOUDY    72  64  78 N6G13     30.01R
CHARITON *       N/A     70  68  94 MISG      30.03R
DES MOINES     CLOUDY    74  69  85 W6        30.02R
GRINNELL*      MOCLDY    73  71  94 N5        29.98S
KNOXVILLE *    CLOUDY    68  66  94 W10       30.01R
MARSHALLTOWN   CLOUDY    73  71  93 NW8       29.98F
NEWTON *       MOCLDY    73  73 100 N7        29.98R
PELLA *        CLOUDY    67  66  96 W3        30.01R
PERRY *          N/A     70  67  89 W5        30.03R
$$

IAZ004>006-015-016-023>025-035-036-250300-
   NORTH CENTRAL IOWA

CITY           SKY/WX    TMP DP  RH WIND       PRES   REMARKS
ALGONA *       CLOUDY    68  64  88 NW5       30.04S
ESTHERVILLE    CLOUDY    64  62  93 W5        30.04F
FORT DODGE *   PTCLDY    70  61  73 N5        30.03S
MASON CITY     CLOUDY    67  62  84 NW7       30.04S
FOREST CITY *    N/A    N/A N/A N/A MISG        N/A
WEBSTER CITY * CLOUDY    70  66  88 NW5       30.00S
IOWA FALLS *     N/A     70  66  87 NW5       30.03S
$$

IAZ007>011-017>019-026>030-037>042-050>054-066-250300-
   NORTHEAST IOWA

CITY           SKY/WX    TMP DP  RH WIND       PRES   REMARKS
CEDAR RAPIDS   LGT RAIN  74  74 100 N7        29.96F FOG
CHARLES CITY * CLOUDY    70  68  94 NW5       30.02R
CLINTON *      CLOUDY    75  72  90 NW5       29.96S
DECORAH *      CLOUDY    72  66  83 CALM      29.99R
DUBUQUE        CLOUDY    74  71  91 W3        29.98R
MONTICELLO *   CLOUDY    75  72  88 NW6       29.97R
OELWEIN *      CLOUDY    72  70  94 NW6       29.99S
WATERLOO       CLOUDY    72  69  90 NW7       29.97F
$$

IAZ064-065-067-068-078-250300-
   EAST CENTRAL IOWA

CITY           SKY/WX    TMP DP  RH WIND       PRES   REMARKS
DAVENPORT      CLOUDY    76  71  85 SW3       29.96S
IOWA CITY      HVY RAIN  74  73  97 N9G17     29.99R FOG
MT. PLEASANT * MOCLDY    78  78  99 W7        29.99R HX  81
MUSCATINE *    CLOUDY    79  73  83 NW29G37   29.99R HX  82
QUAD CITIES    CLOUDY    77  71  82 CALM      29.96R
$$

IAZ062-063-075>077-085>089-095>099-250300-
   SOUTHEAST IOWA

CITY           SKY/WX    TMP DP  RH WIND       PRES   REMARKS
BURLINGTON     CLEAR     75  75 100 S6        29.97R
FAIRFIELD *    MOCLDY    68  66  94 NW5       30.00R
FORT MADISON * MOCLDY    75  75 100 SW3       29.99R
KEOKUK *       CLOUDY    77  75  94 W6        29.98R
OSKALOOSA *    MOCLDY    65  64  94 S5        30.00R
CENTERVILLE *    N/A     72  70  94 CALM      30.03R
OTTUMWA        PTCLDY    67  64  90 W5        30.00R
WASHINGTON *   LGT RAIN  70  70 100 W7        30.00R
$$

ABBREVIATIONS USED IN REMARKS
   TC - TEMPERATURES IN CELSIUS
  WCI - WIND CHILL INDEX
   HX - HEAT INDEX
  VSB - VISIBILITY
$$





USA.gov is the U.S. government's official web portal to all federal, state and local government web resources and services.